^^
Saratoga-Weather Station Historical Data
Daily Summary for January 23, 2022 Units:  English    Metric   Both
Daily Weekly Monthly Yearly Custom
  High: Low: Average:
Temperature: 42.4 °F 38.3 °F 40.3 °F
Dew Point: 37.8 °F 34.5 °F 36 °F
Humidity: 91% 76% 85%
Wind Speed: 6.9mph 0mph 1.3mph
Wind Gust: 9mph - -
Wind- - ESE
Pressure: 30.6 in 30.5 in -
Precipitation: 0 in    
Historical Graphs
 
 
Tabular Data for January 23, 2022
Time Temperature Dew Point Pressure Wind Wind Speed Wind Gust Humidity Rainfall Rate (Hourly) solar
00:03 40.1 °F 37.8 °F 30.6 in West 2 mph 3 mph 91% 0 in 0 W/m2
00:08 40.1 °F 37.8 °F 30.6 in West 0.9 mph 4 mph 91% 0 in 0 W/m2
00:13 40.1 °F 37.8 °F 30.6 in WSW 2.9 mph 5 mph 91% 0 in 0 W/m2
00:18 40.1 °F 37.8 °F 30.6 in West 2 mph 4 mph 91% 0 in 0 W/m2
00:23 40.1 °F 37.8 °F 30.6 in West 0.9 mph 5 mph 91% 0 in 0 W/m2
00:28 40.1 °F 37.4 °F 30.6 in West 0.9 mph 3 mph 90% 0 in 0 W/m2
00:33 40.1 °F 37.4 °F 30.6 in WNW 2 mph 5 mph 90% 0 in 0 W/m2
00:38 40.1 °F 37.4 °F 30.6 in WNW 0.9 mph 4 mph 90% 0 in 0 W/m2
00:43 40.1 °F 37.4 °F 30.6 in West 0.9 mph 4 mph 90% 0 in 0 W/m2
00:48 40.1 °F 37.4 °F 30.6 in West 4 mph 4 mph 90% 0 in 0 W/m2
00:53 40.1 °F 37.4 °F 30.6 in West 0.9 mph 2 mph 90% 0 in 0 W/m2
00:58 40.3 °F 37.6 °F 30.6 in West 2 mph 2 mph 90% 0 in 0 W/m2
01:03 40.3 °F 37.6 °F 30.6 in Calm     90% 0 in 0 W/m2
01:08 40.3 °F 37.6 °F 30.6 in NW 0.9 mph 1 mph 90% 0 in 0 W/m2
01:13 40.1 °F 37.4 °F 30.6 in NW 0.9 mph 2 mph 90% 0 in 0 W/m2
01:18 40.1 °F 37.8 °F 30.6 in NW 0.9 mph 3 mph 91% 0 in 0 W/m2
01:23 39.9 °F 37.6 °F 30.6 in West 0.9 mph 2 mph 91% 0 in 0 W/m2
01:28 39.9 °F 37.6 °F 30.6 in West 0.9 mph 2 mph 91% 0 in 0 W/m2
01:33 39.7 °F 37.4 °F 30.6 in Calm   1 mph 91% 0 in 0 W/m2
01:38 39.7 °F 37.4 °F 30.6 in Calm     91% 0 in 0 W/m2
01:43 39.7 °F 37.4 °F 30.6 in Calm   2 mph 91% 0 in 0 W/m2
01:48 39.7 °F 37.4 °F 30.6 in Calm     91% 0 in 0 W/m2
01:53 39.7 °F 37.4 °F 30.6 in Calm   2 mph 91% 0 in 0 W/m2
01:58 39.7 °F 37.4 °F 30.6 in Calm     91% 0 in 0 W/m2
02:03 39.7 °F 37.4 °F 30.6 in Calm   1 mph 91% 0 in 0 W/m2
02:08 39.7 °F 37.4 °F 30.6 in Calm     91% 0 in 0 W/m2
02:13 39.6 °F 37.2 °F 30.6 in Calm     91% 0 in 0 W/m2
02:18 39.6 °F 37.2 °F 30.6 in Calm     91% 0 in 0 W/m2
02:23 39.6 °F 37.2 °F 30.6 in Calm     91% 0 in 0 W/m2
02:28 39.6 °F 37.2 °F 30.6 in Calm     91% 0 in 0 W/m2
02:33 39.6 °F 37.2 °F 30.6 in Calm     91% 0 in 0 W/m2
02:38 39.4 °F 37 °F 30.6 in Calm     91% 0 in 0 W/m2
02:43 39.4 °F 37 °F 30.6 in Calm     91% 0 in 0 W/m2
02:48 39.4 °F 37 °F 30.6 in Calm     91% 0 in 0 W/m2
02:53 39.2 °F 36.9 °F 30.6 in Calm     91% 0 in 0 W/m2
02:58 39.2 °F 36.9 °F 30.5 in Calm     91% 0 in 0 W/m2
03:03 39 °F 36.7 °F 30.5 in Calm     91% 0 in 0 W/m2
03:08 39 °F 36.7 °F 30.5 in Calm   2 mph 91% 0 in 0 W/m2
03:13 39 °F 36.7 °F 30.6 in Calm     91% 0 in 0 W/m2
03:18 39 °F 36.7 °F 30.5 in Calm   2 mph 91% 0 in 0 W/m2
03:23 39.2 °F 36.9 °F 30.6 in Calm     91% 0 in 0 W/m2
03:28 39.2 °F 36.5 °F 30.6 in Calm     90% 0 in 0 W/m2
03:33 39.2 °F 36.5 °F 30.5 in Calm     90% 0 in 0 W/m2
03:38 39.2 °F 36.5 °F 30.5 in Calm     90% 0 in 0 W/m2
03:43 39.2 °F 36.5 °F 30.5 in Calm     90% 0 in 0 W/m2
03:48 39.2 °F 36.5 °F 30.5 in Calm     90% 0 in 0 W/m2
03:53 39 °F 36.3 °F 30.5 in Calm     90% 0 in 0 W/m2
03:58 39 °F 36.3 °F 30.5 in Calm     90% 0 in 0 W/m2
04:03 38.8 °F 36.1 °F 30.5 in Calm     90% 0 in 0 W/m2
04:08 38.8 °F 36.5 °F 30.5 in Calm     91% 0 in 0 W/m2
04:13 38.8 °F 36.5 °F 30.5 in Calm     91% 0 in 0 W/m2
04:18 38.7 °F 36 °F 30.5 in Calm     90% 0 in 0 W/m2
04:23 38.7 °F 36.3 °F 30.5 in Calm     91% 0 in 0 W/m2
04:28 38.7 °F 36.3 °F 30.5 in Calm     91% 0 in 0 W/m2
04:33 38.7 °F 36.3 °F 30.5 in Calm     91% 0 in 0 W/m2
04:38 38.5 °F 36.1 °F 30.5 in Calm     91% 0 in 0 W/m2
04:43 38.5 °F 36.1 °F 30.5 in Calm     91% 0 in 0 W/m2
04:48 38.5 °F 36.1 °F 30.5 in Calm     91% 0 in 0 W/m2
04:53 38.5 °F 36.1 °F 30.5 in Calm     91% 0 in 0 W/m2
04:58 38.5 °F 36.1 °F 30.5 in Calm     91% 0 in 0 W/m2
05:03 38.3 °F 36 °F 30.5 in Calm     91% 0 in 0 W/m2
05:08 38.3 °F 36 °F 30.5 in WNW 2 mph 2 mph 91% 0 in 0 W/m2
05:13 38.5 °F 36.1 °F 30.5 in Calm     91% 0 in 0 W/m2
05:18 38.5 °F 36.1 °F 30.5 in Calm     91% 0 in 0 W/m2
05:23 38.7 °F 36.3 °F 30.5 in Calm     91% 0 in 0 W/m2
05:28 38.7 °F 36.3 °F 30.5 in WNW 0.9 mph 1 mph 91% 0 in 0 W/m2
05:33 38.7 °F 36 °F 30.5 in NW 0.9 mph 1 mph 90% 0 in 0 W/m2
05:38 38.7 °F 36 °F 30.5 in North 0.9 mph 3 mph 90% 0 in 0 W/m2
05:43 38.8 °F 36.1 °F 30.5 in Calm   2 mph 90% 0 in 0 W/m2
05:48 38.8 °F 36 °F 30.5 in Calm   3 mph 89% 0 in 0 W/m2
05:53 38.8 °F 36 °F 30.5 in Calm   2 mph 89% 0 in 0 W/m2
05:59 39 °F 36.1 °F 30.5 in Calm     89% 0 in 0 W/m2
06:04 39 °F 36.1 °F 30.5 in Calm     89% 0 in 0 W/m2
06:09 39 °F 36.1 °F 30.5 in Calm     89% 0 in 0 W/m2
06:14 39 °F 36.1 °F 30.5 in Calm     89% 0 in 0 W/m2
06:19 39 °F 36.1 °F 30.5 in Calm     89% 0 in 0 W/m2
06:24 38.8 °F 36 °F 30.5 in Calm     89% 0 in 0 W/m2
06:29 38.8 °F 36 °F 30.5 in Calm     89% 0 in 0 W/m2
06:34 38.8 °F 36 °F 30.5 in Calm     89% 0 in 0 W/m2
06:39 38.8 °F 36 °F 30.5 in Calm     89% 0 in 0 W/m2
06:44 38.7 °F 35.8 °F 30.5 in Calm     89% 0 in 0 W/m2
06:49 38.7 °F 36 °F 30.5 in Calm     90% 0 in 0 W/m2
06:54 38.5 °F 35.8 °F 30.5 in Calm   2 mph 90% 0 in 0 W/m2
06:59 38.5 °F 35.8 °F 30.5 in Calm     90% 0 in 0 W/m2
07:04 38.5 °F 35.8 °F 30.5 in Calm   2 mph 90% 0 in 0 W/m2
07:09 38.5 °F 35.8 °F 30.5 in Calm     90% 0 in 0 W/m2
07:14 38.5 °F 35.8 °F 30.5 in Calm     90% 0 in 0 W/m2
07:19 38.7 °F 36 °F 30.6 in Calm     90% 0 in 0 W/m2
07:24 38.5 °F 35.8 °F 30.5 in Calm     90% 0 in 0 W/m2
07:29 38.7 °F 36 °F 30.5 in Calm     90% 0 in 0 W/m2
07:34 38.7 °F 36 °F 30.5 in Calm     90% 0 in 0 W/m2
07:39 38.7 °F 36 °F 30.6 in Calm     90% 0 in 0 W/m2
07:44 38.7 °F 36 °F 30.6 in Calm     90% 0 in 0 W/m2
07:49 38.7 °F 36 °F 30.6 in Calm     90% 0 in 0 W/m2
07:54 38.7 °F 36 °F 30.6 in Calm     90% 0 in 0 W/m2
07:59 38.7 °F 36 °F 30.6 in Calm     90% 0 in 0 W/m2
08:04 38.7 °F 36 °F 30.6 in NE 0.9 mph 1 mph 90% 0 in 0 W/m2
08:09 38.7 °F 36 °F 30.6 in Calm   1 mph 90% 0 in 0 W/m2
08:14 38.7 °F 36 °F 30.6 in Calm     90% 0 in 0 W/m2
08:19 38.7 °F 35.8 °F 30.6 in Calm     89% 0 in 0 W/m2
08:24 38.7 °F 35.8 °F 30.6 in Calm   2 mph 89% 0 in 0 W/m2
08:29 38.7 °F 35.8 °F 30.6 in NE 0.9 mph 1 mph 89% 0 in 0 W/m2
08:34 38.7 °F 35.8 °F 30.6 in Calm     89% 0 in 0 W/m2
08:39 38.7 °F 35.8 °F 30.6 in ENE 0.9 mph 2 mph 89% 0 in 5 W/m2
08:44 38.8 °F 36.1 °F 30.6 in Calm   2 mph 90% 0 in 7 W/m2
08:49 38.8 °F 36.1 °F 30.6 in Calm     90% 0 in 7 W/m2
08:54 38.8 °F 36.1 °F 30.6 in Calm   2 mph 90% 0 in 9 W/m2
08:59 38.8 °F 36.1 °F 30.6 in Calm     90% 0 in 12 W/m2
09:04 38.8 °F 36.1 °F 30.6 in Calm   2 mph 90% 0 in 14 W/m2
09:09 38.8 °F 36.1 °F 30.6 in Calm   1 mph 90% 0 in 19 W/m2
09:14 38.8 °F 36 °F 30.6 in Calm     89% 0 in 19 W/m2
09:19 39 °F 36.1 °F 30.6 in Calm   1 mph 89% 0 in 21 W/m2
09:24 39 °F 36.1 °F 30.6 in ENE 0.9 mph 2 mph 89% 0 in 21 W/m2
09:29 39.2 °F 36.3 °F 30.6 in Calm     89% 0 in 23 W/m2
09:34 39.4 °F 36.1 °F 30.6 in Calm   2 mph 88% 0 in 26 W/m2
09:39 39.4 °F 36.1 °F 30.6 in Calm   1 mph 88% 0 in 28 W/m2
09:44 39.6 °F 36 °F 30.6 in Calm   1 mph 87% 0 in 32 W/m2
09:49 39.6 °F 36 °F 30.6 in Calm     87% 0 in 32 W/m2
09:54 39.7 °F 36.1 °F 30.6 in Calm     87% 0 in 33 W/m2
09:59 39.7 °F 36 °F 30.6 in East 0.9 mph 2 mph 86% 0 in 37 W/m2
10:04 39.9 °F 36.1 °F 30.6 in Calm   3 mph 86% 0 in 42 W/m2
10:09 39.9 °F 36.1 °F 30.6 in Calm     86% 0 in 44 W/m2
10:14 40.1 °F 36.3 °F 30.6 in Calm   2 mph 86% 0 in 51 W/m2
10:19 40.3 °F 36.5 °F 30.6 in SE 2.9 mph 3 mph 86% 0 in 51 W/m2
10:24 40.5 °F 36.3 °F 30.6 in SE 2.9 mph 4 mph 85% 0 in 49 W/m2
10:29 40.6 °F 36.1 °F 30.6 in SSE 0.9 mph 3 mph 84% 0 in 54 W/m2
10:34 40.6 °F 36.1 °F 30.6 in ESE 2 mph 4 mph 84% 0 in 62 W/m2
10:39 40.8 °F 36.1 °F 30.6 in ESE 2 mph 6 mph 83% 0 in 65 W/m2
10:44 41 °F 36.3 °F 30.6 in East 0.9 mph 3 mph 83% 0 in 72 W/m2
10:49 41.2 °F 36.5 °F 30.6 in ESE 4 mph 4 mph 83% 0 in 69 W/m2
10:54 41.4 °F 36.3 °F 30.6 in Calm   3 mph 82% 0 in 77 W/m2
10:59 41.4 °F 36.3 °F 30.6 in ESE 2.9 mph 4 mph 82% 0 in 74 W/m2
11:04 41.4 °F 36.3 °F 30.6 in Calm   3 mph 82% 0 in 70 W/m2
11:09 41.4 °F 36.3 °F 30.6 in ESE 2.9 mph 4 mph 82% 0 in 70 W/m2
11:14 41.4 °F 36.3 °F 30.6 in SE 0.9 mph 3 mph 82% 0 in 76 W/m2
11:19 41.5 °F 36.5 °F 30.6 in East 2 mph 2 mph 82% 0 in 76 W/m2
11:24 41.5 °F 36.5 °F 30.6 in Calm   3 mph 82% 0 in 81 W/m2
11:29 41.5 °F 36.5 °F 30.6 in ENE 0.9 mph 3 mph 82% 0 in 83 W/m2
11:34 41.5 °F 36.5 °F 30.6 in NE 2.9 mph 3 mph 82% 0 in 83 W/m2
11:39 41.5 °F 36.5 °F 30.6 in NE 2.9 mph 4 mph 82% 0 in 83 W/m2
11:44 41.7 °F 36.7 °F 30.6 in ENE 2 mph 4 mph 82% 0 in 76 W/m2
11:49 41.7 °F 36.7 °F 30.6 in ENE 0.9 mph 3 mph 82% 0 in 77 W/m2
11:54 41.7 °F 36.9 °F 30.6 in North 2 mph 4 mph 83% 0 in 79 W/m2
11:59 41.7 °F 36.9 °F 30.6 in NE 4 mph 4 mph 83% 0 in 84 W/m2
12:04 41.7 °F 36.7 °F 30.6 in ENE 0.9 mph 4 mph 82% 0 in 86 W/m2
12:09 41.9 °F 36.9 °F 30.6 in East 0.9 mph 3 mph 82% 0 in 93 W/m2
12:14 41.9 °F 36.9 °F 30.6 in East 2 mph 4 mph 82% 0 in 97 W/m2
12:19 42.1 °F 37 °F 30.6 in Calm   4 mph 82% 0 in 98 W/m2
12:24 42.1 °F 36.7 °F 30.6 in ENE 0.9 mph 4 mph 81% 0 in 93 W/m2
12:29 42.3 °F 36.9 °F 30.6 in NE 0.9 mph 3 mph 81% 0 in 90 W/m2
12:34 42.3 °F 36.9 °F 30.6 in Calm   4 mph 81% 0 in 84 W/m2
12:39 42.4 °F 37 °F 30.6 in East 0.9 mph 3 mph 81% 0 in 86 W/m2
12:44 42.4 °F 36.7 °F 30.6 in ESE 0.9 mph 5 mph 80% 0 in 86 W/m2
12:49 42.4 °F 36.7 °F 30.6 in Calm   3 mph 80% 0 in 90 W/m2
12:54 42.4 °F 36.7 °F 30.6 in Calm   6 mph 80% 0 in 93 W/m2
13:00 42.4 °F 36.3 °F 30.6 in East 2.9 mph 4 mph 79% 0 in 93 W/m2
13:05 42.4 °F 36.7 °F 30.6 in NE 0.9 mph 6 mph 80% 0 in 90 W/m2
13:10 42.4 °F 36.7 °F 30.6 in ENE 2.9 mph 4 mph 80% 0 in 77 W/m2
13:15 42.3 °F 36.5 °F 30.6 in Calm   5 mph 80% 0 in 88 W/m2
13:20 42.4 °F 36.7 °F 30.5 in ESE 4.9 mph 5 mph 80% 0 in 79 W/m2
13:25 42.4 °F 36.3 °F 30.5 in ENE 2.9 mph 5 mph 79% 0 in 77 W/m2
13:30 42.4 °F 36.3 °F 30.5 in ENE 2 mph 2 mph 79% 0 in 70 W/m2
13:35 42.4 °F 36.3 °F 30.5 in East 0.9 mph 5 mph 79% 0 in 62 W/m2
13:40 42.4 °F 36.1 °F 30.5 in East 4 mph 4 mph 78% 0 in 53 W/m2
13:45 42.4 °F 36.1 °F 30.5 in East 2 mph 5 mph 78% 0 in 54 W/m2
13:50 42.3 °F 36 °F 30.5 in ESE 2 mph 7 mph 78% 0 in 53 W/m2
13:55 42.3 °F 36 °F 30.5 in ENE 2.9 mph 5 mph 78% 0 in 49 W/m2
14:00 42.3 °F 36 °F 30.5 in ESE 2.9 mph 8 mph 78% 0 in 49 W/m2
14:05 42.1 °F 35.8 °F 30.5 in East 4 mph 4 mph 78% 0 in 44 W/m2
14:10 42.1 °F 36 °F 30.5 in ENE 2 mph 6 mph 79% 0 in 42 W/m2
14:15 42.1 °F 36 °F 30.5 in Calm   6 mph 79% 0 in 46 W/m2
14:20 41.9 °F 35.8 °F 30.5 in SE 4.9 mph 5 mph 79% 0 in 51 W/m2
14:25 42.1 °F 36.3 °F 30.5 in ESE 0.9 mph 5 mph 80% 0 in 65 W/m2
14:30 42.1 °F 35.8 °F 30.5 in SE 4 mph 4 mph 78% 0 in 84 W/m2
14:35 42.1 °F 35.4 °F 30.5 in SE 2 mph 7 mph 77% 0 in 76 W/m2
14:40 42.1 °F 35.4 °F 30.5 in Calm   3 mph 77% 0 in 70 W/m2
14:45 42.3 °F 35.6 °F 30.5 in East 0.9 mph 4 mph 77% 0 in 62 W/m2
14:50 42.3 °F 35.6 °F 30.5 in ENE 4.9 mph 6 mph 77% 0 in 54 W/m2
14:55 42.3 °F 35.2 °F 30.5 in ENE 2 mph 3 mph 76% 0 in 53 W/m2
15:00 42.3 °F 35.6 °F 30.5 in ENE 2.9 mph 4 mph 77% 0 in 51 W/m2
15:05 42.3 °F 35.6 °F 30.5 in SE 2 mph 3 mph 77% 0 in 47 W/m2
15:10 42.3 °F 35.6 °F 30.5 in ENE 0.9 mph 6 mph 77% 0 in 44 W/m2
15:15 42.3 °F 36 °F 30.5 in ESE 2 mph 3 mph 78% 0 in 42 W/m2
15:20 42.1 °F 35.8 °F 30.5 in ENE 2.9 mph 7 mph 78% 0 in 39 W/m2
15:25 42.1 °F 35.8 °F 30.5 in ENE 4 mph 4 mph 78% 0 in 39 W/m2
15:30 42.1 °F 35.8 °F 30.5 in East 2 mph 5 mph 78% 0 in 39 W/m2
15:35 42.1 °F 35.8 °F 30.5 in ENE 4.9 mph 5 mph 78% 0 in 37 W/m2
15:40 41.9 °F 35.8 °F 30.5 in ENE 2.9 mph 3 mph 79% 0 in 35 W/m2
15:45 41.9 °F 35.8 °F 30.5 in NE 2 mph 3 mph 79% 0 in 32 W/m2
15:50 41.9 °F 35.8 °F 30.5 in Calm   3 mph 79% 0 in 33 W/m2
15:55 41.7 °F 35.8 °F 30.5 in East 0.9 mph 4 mph 79% 0 in 30 W/m2
16:01 41.7 °F 35.8 °F 30.5 in NE 4 mph 4 mph 79% 0 in 28 W/m2
16:06 41.7 °F 35.8 °F 30.5 in ENE 2.9 mph 4 mph 79% 0 in 23 W/m2
16:11 41.7 °F 35.8 °F 30.5 in ENE 2 mph 4 mph 79% 0 in 21 W/m2
16:16 41.5 °F 35.6 °F 30.5 in NE 6.9 mph 9 mph 79% 0 in 19 W/m2
16:21 41.5 °F 35.6 °F 30.5 in NE 4 mph 7 mph 79% 0 in 18 W/m2
16:26 41.5 °F 35.6 °F 30.5 in NE 4 mph 9 mph 79% 0 in 18 W/m2
16:31 41.5 °F 35.6 °F 30.5 in East 0.9 mph 4 mph 79% 0 in 14 W/m2
16:36 41.5 °F 35.6 °F 30.5 in ENE 2.9 mph 4 mph 79% 0 in 12 W/m2
16:41 41.5 °F 35.6 °F 30.5 in NE 2.9 mph 5 mph 79% 0 in 11 W/m2
16:46 41.4 °F 35.4 °F 30.5 in East 2.9 mph 4 mph 79% 0 in 9 W/m2
16:51 41.4 °F 35.6 °F 30.5 in ESE 4 mph 7 mph 80% 0 in 9 W/m2
16:56 41.2 °F 35.4 °F 30.5 in Calm   5 mph 80% 0 in 7 W/m2
17:01 41.2 °F 35.4 °F 30.5 in NE 2.9 mph 4 mph 80% 0 in 7 W/m2
17:06 41 °F 35.2 °F 30.5 in East 0.9 mph 5 mph 80% 0 in 5 W/m2
17:11 41 °F 35.2 °F 30.5 in ESE 2 mph 4 mph 80% 0 in 0 W/m2
17:16 40.8 °F 35.1 °F 30.5 in SE 2 mph 4 mph 80% 0 in 0 W/m2
17:21 40.8 °F 35.4 °F 30.5 in SSE 2 mph 4 mph 81% 0 in 0 W/m2
17:26 40.8 °F 35.4 °F 30.5 in ESE 0.9 mph 6 mph 81% 0 in 0 W/m2
17:31 40.6 °F 35.2 °F 30.5 in East 0.9 mph 3 mph 81% 0 in 0 W/m2
17:36 40.6 °F 35.2 °F 30.5 in ENE 0.9 mph 6 mph 81% 0 in 0 W/m2
17:41 40.6 °F 35.2 °F 30.5 in ESE 0.9 mph 2 mph 81% 0 in 0 W/m2
17:46 40.6 °F 35.6 °F 30.5 in NE 0.9 mph 2 mph 82% 0 in 0 W/m2
17:51 40.6 °F 35.6 °F 30.5 in East 0.9 mph 1 mph 82% 0 in 0 W/m2
17:56 40.6 °F 35.6 °F 30.5 in ESE 2.9 mph 6 mph 82% 0 in 0 W/m2
18:01 40.6 °F 35.6 °F 30.5 in Calm   2 mph 82% 0 in 0 W/m2
18:06 40.5 °F 35.1 °F 30.5 in NE 0.9 mph 6 mph 81% 0 in 0 W/m2
18:11 40.5 °F 35.1 °F 30.5 in ENE 2 mph 4 mph 81% 0 in 0 W/m2
18:16 40.6 °F 35.2 °F 30.5 in East 2.9 mph 7 mph 81% 0 in 0 W/m2
18:21 40.5 °F 35.1 °F 30.5 in East 0.9 mph 2 mph 81% 0 in 0 W/m2
18:26 40.5 °F 35.1 °F 30.5 in East 4 mph 4 mph 81% 0 in 0 W/m2
18:31 40.5 °F 35.1 °F 30.5 in ESE 2.9 mph 3 mph 81% 0 in 0 W/m2
18:36 40.5 °F 35.4 °F 30.5 in NE 0.9 mph 3 mph 82% 0 in 0 W/m2
18:41 40.5 °F 35.4 °F 30.5 in East 2 mph 3 mph 82% 0 in 0 W/m2
18:46 40.3 °F 35.2 °F 30.5 in ENE 2 mph 6 mph 82% 0 in 0 W/m2
18:51 40.3 °F 35.2 °F 30.5 in East 2.9 mph 4 mph 82% 0 in 0 W/m2
18:56 40.3 °F 35.2 °F 30.5 in ESE 2 mph 6 mph 82% 0 in 0 W/m2
19:01 40.3 °F 35.2 °F 30.5 in ESE 0.9 mph 3 mph 82% 0 in 0 W/m2
19:06 40.3 °F 35.2 °F 30.5 in East 2.9 mph 7 mph 82% 0 in 0 W/m2
19:11 40.3 °F 35.2 °F 30.5 in East 0.9 mph 3 mph 82% 0 in 0 W/m2
19:16 40.3 °F 35.2 °F 30.5 in ESE 0.9 mph 7 mph 82% 0 in 0 W/m2
19:21 40.3 °F 35.2 °F 30.5 in ESE 0.9 mph 3 mph 82% 0 in 0 W/m2
19:26 40.5 °F 35.4 °F 30.5 in ENE 2 mph 3 mph 82% 0 in 0 W/m2
19:31 40.5 °F 35.4 °F 30.5 in ESE 2 mph 4 mph 82% 0 in 0 W/m2
19:36 40.5 °F 35.4 °F 30.5 in SE 2.9 mph 6 mph 82% 0 in 0 W/m2
19:41 40.5 °F 35.4 °F 30.5 in ESE 2.9 mph 4 mph 82% 0 in 0 W/m2
19:46 40.5 °F 35.4 °F 30.5 in East 2 mph 6 mph 82% 0 in 0 W/m2
19:51 40.6 °F 35.6 °F 30.5 in ESE 0.9 mph 3 mph 82% 0 in 0 W/m2
19:56 40.6 °F 35.6 °F 30.5 in ESE 2 mph 3 mph 82% 0 in 0 W/m2
20:01 40.6 °F 35.6 °F 30.5 in ESE 0.9 mph 3 mph 82% 0 in 0 W/m2
20:06 40.6 °F 35.6 °F 30.5 in ESE 0.9 mph 2 mph 82% 0 in 0 W/m2
20:11 40.6 °F 35.6 °F 30.5 in ENE 0.9 mph 4 mph 82% 0 in 0 W/m2
20:16 40.6 °F 35.6 °F 30.5 in ESE 0.9 mph 2 mph 82% 0 in 0 W/m2
20:21 40.6 °F 35.6 °F 30.5 in ESE 2 mph 2 mph 82% 0 in 0 W/m2
20:26 40.6 °F 35.6 °F 30.5 in Calm   3 mph 82% 0 in 0 W/m2
20:31 40.6 °F 35.6 °F 30.5 in East 2 mph 2 mph 82% 0 in 0 W/m2
20:36 40.6 °F 35.6 °F 30.5 in Calm   4 mph 82% 0 in 0 W/m2
20:41 40.6 °F 35.6 °F 30.5 in ESE 0.9 mph 7 mph 82% 0 in 0 W/m2
20:46 40.6 °F 35.6 °F 30.5 in ESE 2 mph 4 mph 82% 0 in 0 W/m2
20:51 40.6 °F 35.6 °F 30.5 in ESE 4 mph 4 mph 82% 0 in 0 W/m2
20:56 40.6 °F 35.6 °F 30.5 in Calm   4 mph 82% 0 in 0 W/m2
21:01 40.6 °F 35.6 °F 30.5 in East 2 mph 6 mph 82% 0 in 0 W/m2
21:06 40.8 °F 35.8 °F 30.5 in East 0.9 mph 3 mph 82% 0 in 0 W/m2
21:11 40.8 °F 35.8 °F 30.5 in East 0.9 mph 4 mph 82% 0 in 0 W/m2
21:16 40.8 °F 35.8 °F 30.5 in ESE 2 mph 3 mph 82% 0 in 0 W/m2
21:21 40.8 °F 35.8 °F 30.5 in Calm   3 mph 82% 0 in 0 W/m2
21:26 40.8 °F 35.8 °F 30.5 in ESE 0.9 mph 4 mph 82% 0 in 0 W/m2
21:31 40.8 °F 35.8 °F 30.5 in East 0.9 mph 4 mph 82% 0 in 0 W/m2
21:37 40.8 °F 35.8 °F 30.5 in East 2 mph 3 mph 82% 0 in 0 W/m2
21:42 40.8 °F 35.8 °F 30.5 in ENE 2 mph 4 mph 82% 0 in 0 W/m2
21:47 40.8 °F 35.8 °F 30.5 in East 2 mph 6 mph 82% 0 in 0 W/m2
21:52 40.6 °F 35.6 °F 30.5 in ESE 2.9 mph 7 mph 82% 0 in 0 W/m2
21:57 40.6 °F 35.6 °F 30.5 in East 2 mph 3 mph 82% 0 in 0 W/m2
22:02 40.6 °F 35.6 °F 30.5 in ESE 2 mph 4 mph 82% 0 in 0 W/m2
22:07 40.6 °F 35.2 °F 30.5 in ESE 2.9 mph 4 mph 81% 0 in 0 W/m2
22:12 40.6 °F 35.2 °F 30.5 in ESE 2.9 mph 7 mph 81% 0 in 0 W/m2
22:17 40.6 °F 35.6 °F 30.5 in NE 0.9 mph 3 mph 82% 0 in 0 W/m2
22:22 40.6 °F 35.2 °F 30.5 in East 2.9 mph 7 mph 81% 0 in 0 W/m2
22:27 40.6 °F 35.2 °F 30.5 in ESE 2 mph 4 mph 81% 0 in 0 W/m2
22:32 40.6 °F 35.2 °F 30.5 in East 4 mph 7 mph 81% 0 in 0 W/m2
22:37 40.6 °F 35.2 °F 30.5 in ESE 2.9 mph 4 mph 81% 0 in 0 W/m2
22:42 40.6 °F 35.2 °F 30.5 in East 2 mph 7 mph 81% 0 in 0 W/m2
22:47 40.6 °F 35.2 °F 30.5 in East 4 mph 4 mph 81% 0 in 0 W/m2
22:52 40.5 °F 35.1 °F 30.5 in ESE 2 mph 7 mph 81% 0 in 0 W/m2
22:57 40.5 °F 35.1 °F 30.5 in ENE 6 mph 6 mph 81% 0 in 0 W/m2
23:02 40.3 °F 34.9 °F 30.5 in ESE 2.9 mph 9 mph 81% 0 in 0 W/m2
23:07 40.3 °F 34.9 °F 30.5 in East 2.9 mph 6 mph 81% 0 in 0 W/m2
23:12 40.1 °F 34.7 °F 30.5 in ESE 2 mph 9 mph 81% 0 in 0 W/m2
23:17 39.7 °F 34.7 °F 30.5 in ESE 2 mph 3 mph 82% 0 in 0 W/m2
23:22 39.7 °F 34.7 °F 30.5 in East 2.9 mph 6 mph 82% 0 in 0 W/m2
23:27 39.6 °F 34.5 °F 30.5 in East 6 mph 7 mph 82% 0 in 0 W/m2
23:32 39.6 °F 34.5 °F 30.5 in ENE 2 mph 6 mph 82% 0 in 0 W/m2
23:37 39.6 °F 34.5 °F 30.5 in SE 2 mph 5 mph 82% 0 in 0 W/m2
23:42 39.6 °F 34.5 °F 30.5 in ESE 2.9 mph 6 mph 82% 0 in 0 W/m2
23:47 39.6 °F 34.5 °F 30.5 in ESE 4 mph 7 mph 82% 0 in 0 W/m2
23:52 39.6 °F 34.5 °F 30.5 in ESE 6 mph 6 mph 82% 0 in 0 W/m2
23:57 39.6 °F 34.5 °F 30.5 in ESE 2 mph 4 mph 82% 0 in 0 W/m2
Juneau County Weather
Compliments of Weather Underground - 4 mb